contact:dominique.lefevre@mio.osupytheas.fr, maurice.libes@osupytheas.fr, didier.mallarino@osupytheas.fr
Project:EMSO http://www.emso-fr.org/EMSO-France
Depth: 2436.0 m
Title:EMSO Ligure Ouest : Data MII capteur MICROCAT
DateTime_Computer,Latitude,Longitude,Temperature,Conductivity,Pressure,DateTime_Instrument
DateTime_Computer,Latitude,Longitude,degC,S m-1,dbar,DateTime_Instrument
2020-05-13T00:02:59Z,42.805,6.029,13.2999,4.60011,2470.18,2020-5-13T02:03:40Z
2020-05-13T00:06:02Z,42.805,6.029,13.2996,4.60004,2470.194,2020-5-13T02:06:44Z
2020-05-13T00:09:05Z,42.805,6.029,13.3004,4.59999,2470.194,2020-5-13T02:09:47Z
2020-05-13T00:12:08Z,42.805,6.029,13.2993,4.59994,2470.133,2020-5-13T02:12:50Z
2020-05-13T00:15:12Z,42.805,6.029,13.3000,4.60004,2470.156,2020-5-13T02:15:53Z
2020-05-13T00:18:15Z,42.805,6.029,13.3015,4.59999,2470.156,2020-5-13T02:18:57Z
2020-05-13T00:21:18Z,42.805,6.029,13.3005,4.59994,2470.171,2020-5-13T02:22:00Z
2020-05-13T00:24:21Z,42.805,6.029,13.2997,4.59996,2470.156,2020-5-13T02:25:03Z
2020-05-13T00:27:25Z,42.805,6.029,13.2994,4.60002,2470.147,2020-5-13T02:28:06Z
2020-05-13T00:30:28Z,42.805,6.029,13.2994,4.60003,2470.171,2020-5-13T02:31:10Z
2020-05-13T00:33:31Z,42.805,6.029,13.3004,4.59993,2470.171,2020-5-13T02:34:13Z
2020-05-13T00:36:34Z,42.805,6.029,13.2996,4.59995,2470.133,2020-5-13T02:37:16Z
2020-05-13T00:39:38Z,42.805,6.029,13.2996,4.60011,2470.156,2020-5-13T02:40:19Z
2020-05-13T00:42:41Z,42.805,6.029,13.3017,4.60000,2470.147,2020-5-13T02:43:23Z
2020-05-13T00:45:44Z,42.805,6.029,13.2995,4.59995,2470.18,2020-5-13T02:46:26Z
2020-05-13T00:48:47Z,42.805,6.029,13.3011,4.59995,2470.156,2020-5-13T02:49:29Z
2020-05-13T00:51:51Z,42.805,6.029,13.2996,4.59988,2470.156,2020-5-13T02:52:32Z
2020-05-13T00:54:54Z,42.805,6.029,13.3001,4.60000,2470.156,2020-5-13T02:55:36Z
2020-05-13T00:57:57Z,42.805,6.029,13.3003,4.59993,2470.133,2020-5-13T02:58:39Z
2020-05-13T01:01:00Z,42.805,6.029,13.2999,4.59992,2470.171,2020-5-13T03:01:42Z
2020-05-13T01:04:04Z,42.805,6.029,13.2991,4.60002,2470.11,2020-5-13T03:04:45Z
2020-05-13T01:07:07Z,42.805,6.029,13.3014,4.60017,2470.171,2020-5-13T03:07:49Z
2020-05-13T01:10:10Z,42.805,6.029,13.2993,4.60004,2470.171,2020-5-13T03:10:52Z
2020-05-13T01:13:14Z,42.805,6.029,13.2998,4.59990,2470.171,2020-5-13T03:13:55Z
2020-05-13T01:16:17Z,42.805,6.029,13.2991,4.59997,2470.194,2020-5-13T03:16:59Z
2020-05-13T01:19:20Z,42.805,6.029,13.3000,4.59999,2470.194,2020-5-13T03:20:02Z
2020-05-13T01:22:24Z,42.805,6.029,13.2991,4.59996,2470.147,2020-5-13T03:23:05Z
2020-05-13T01:25:27Z,42.805,6.029,13.3000,4.59989,2470.147,2020-5-13T03:26:09Z
2020-05-13T01:28:30Z,42.805,6.029,13.2999,4.59994,2470.171,2020-5-13T03:29:12Z
2020-05-13T01:31:33Z,42.805,6.029,13.3024,4.60005,2470.171,2020-5-13T03:32:15Z
2020-05-13T01:34:36Z,42.805,6.029,13.3007,4.59988,2470.156,2020-5-13T03:35:18Z
2020-05-13T01:37:40Z,42.805,6.029,13.3002,4.60008,2470.18,2020-5-13T03:38:21Z
2020-05-13T01:40:43Z,42.805,6.029,13.2994,4.59998,2470.133,2020-5-13T03:41:25Z
2020-05-13T01:43:46Z,42.805,6.029,13.3004,4.59990,2470.147,2020-5-13T03:44:28Z
2020-05-13T01:46:50Z,42.805,6.029,13.3000,4.59990,2470.171,2020-5-13T03:47:31Z
2020-05-13T01:49:53Z,42.805,6.029,13.2997,4.60003,2470.147,2020-5-13T03:50:35Z
2020-05-13T01:52:56Z,42.805,6.029,13.3012,4.59996,2470.133,2020-5-13T03:53:38Z
2020-05-13T01:55:59Z,42.805,6.029,13.3002,4.60003,2470.147,2020-5-13T03:56:41Z
2020-05-13T01:59:03Z,42.805,6.029,13.2991,4.60007,2470.133,2020-5-13T03:59:44Z
2020-05-13T02:02:06Z,42.805,6.029,13.2993,4.59992,2470.156,2020-5-13T04:02:48Z
2020-05-13T02:05:09Z,42.805,6.029,13.3021,4.60009,2470.156,2020-5-13T04:05:51Z
2020-05-13T02:08:13Z,42.805,6.029,13.3003,4.59995,2470.147,2020-5-13T04:08:55Z
2020-05-13T02:11:16Z,42.805,6.029,13.2997,4.59999,2470.133,2020-5-13T04:11:58Z
2020-05-13T02:14:19Z,42.805,6.029,13.2998,4.60000,2470.194,2020-5-13T04:15:01Z
2020-05-13T02:17:22Z,42.805,6.029,13.2998,4.59994,2470.11,2020-5-13T04:18:04Z
2020-05-13T02:20:26Z,42.805,6.029,13.2998,4.59996,2470.11,2020-5-13T04:21:07Z
2020-05-13T02:23:29Z,42.805,6.029,13.3011,4.59994,2470.124,2020-5-13T04:24:11Z
2020-05-13T02:26:32Z,42.805,6.029,13.3000,4.59994,2470.147,2020-5-13T04:27:14Z
2020-05-13T02:29:35Z,42.805,6.029,13.2996,4.59998,2470.133,2020-5-13T04:30:17Z
2020-05-13T02:32:39Z,42.805,6.029,13.3002,4.60003,2470.11,2020-5-13T04:33:20Z
2020-05-13T02:35:42Z,42.805,6.029,13.2996,4.60001,2470.087,2020-5-13T04:36:24Z
2020-05-13T02:38:45Z,42.805,6.029,13.3010,4.60007,2470.133,2020-5-13T04:39:27Z
2020-05-13T02:41:49Z,42.805,6.029,13.2989,4.60000,2470.133,2020-5-13T04:42:30Z
2020-05-13T02:44:52Z,42.805,6.029,13.3006,4.59992,2470.124,2020-5-13T04:45:33Z
2020-05-13T02:47:55Z,42.805,6.029,13.3003,4.59990,2470.156,2020-5-13T04:48:37Z
2020-05-13T02:50:58Z,42.805,6.029,13.2997,4.59994,2470.147,2020-5-13T04:51:40Z
2020-05-13T02:54:02Z,42.805,6.029,13.2994,4.59997,2470.171,2020-5-13T04:54:43Z
2020-05-13T02:57:05Z,42.805,6.029,13.2993,4.59999,2470.087,2020-5-13T04:57:47Z
2020-05-13T03:00:08Z,42.805,6.029,13.3000,4.59997,2470.11,2020-5-13T05:00:50Z
2020-05-13T03:03:11Z,42.805,6.029,13.2991,4.59995,2470.124,2020-5-13T05:03:53Z
2020-05-13T03:06:14Z,42.805,6.029,13.2998,4.59997,2470.133,2020-5-13T05:06:56Z
2020-05-13T03:09:18Z,42.805,6.029,13.2991,4.59988,2470.11,2020-5-13T05:09:59Z
2020-05-13T03:12:21Z,42.805,6.029,13.2996,4.59995,2470.124,2020-5-13T05:13:03Z
2020-05-13T03:15:24Z,42.805,6.029,13.3004,4.60001,2470.124,2020-5-13T05:16:06Z
2020-05-13T03:18:27Z,42.805,6.029,13.3014,4.59995,2470.11,2020-5-13T05:19:09Z
2020-05-13T03:21:31Z,42.805,6.029,13.2995,4.59995,2470.124,2020-5-13T05:22:12Z
2020-05-13T03:24:34Z,42.805,6.029,13.2997,4.59996,2470.124,2020-5-13T05:25:16Z
2020-05-13T03:27:37Z,42.805,6.029,13.3003,4.60000,2470.087,2020-5-13T05:28:19Z
2020-05-13T03:30:40Z,42.805,6.029,13.2993,4.60017,2470.124,2020-5-13T05:31:22Z
2020-05-13T03:33:44Z,42.805,6.029,13.2991,4.59989,2470.147,2020-5-13T05:34:25Z
2020-05-13T03:36:47Z,42.805,6.029,13.3000,4.60003,2470.1,2020-5-13T05:37:29Z
2020-05-13T03:39:50Z,42.805,6.029,13.3000,4.59998,2470.077,2020-5-13T05:40:32Z
2020-05-13T03:42:53Z,42.805,6.029,13.3006,4.59993,2470.087,2020-5-13T05:43:35Z
2020-05-13T03:45:57Z,42.805,6.029,13.3004,4.59995,2470.087,2020-5-13T05:46:38Z
2020-05-13T03:49:00Z,42.805,6.029,13.3004,4.60007,2470.11,2020-5-13T05:49:41Z
2020-05-13T03:52:03Z,42.805,6.029,13.2996,4.60000,2470.087,2020-5-13T05:52:45Z
2020-05-13T03:55:06Z,42.805,6.029,13.2998,4.59995,2470.11,2020-5-13T05:55:48Z
2020-05-13T03:58:09Z,42.805,6.029,13.2991,4.59999,2470.087,2020-5-13T05:58:51Z
2020-05-13T04:01:13Z,42.805,6.029,13.3002,4.60007,2470.087,2020-5-13T06:01:54Z
2020-05-13T04:04:16Z,42.805,6.029,13.3000,4.59991,2470.063,2020-5-13T06:04:58Z
2020-05-13T04:07:19Z,42.805,6.029,13.2996,4.59991,2470.087,2020-5-13T06:08:01Z
2020-05-13T04:10:23Z,42.805,6.029,13.2991,4.59996,2470.077,2020-5-13T06:11:04Z
2020-05-13T04:13:26Z,42.805,6.029,13.2998,4.60005,2470.1,2020-5-13T06:14:08Z
2020-05-13T04:16:29Z,42.805,6.029,13.2994,4.60004,2470.087,2020-5-13T06:17:11Z
2020-05-13T04:19:32Z,42.805,6.029,13.2997,4.60007,2470.1,2020-5-13T06:20:14Z
2020-05-13T04:22:35Z,42.805,6.029,13.2992,4.59999,2470.077,2020-5-13T06:23:17Z
2020-05-13T04:25:39Z,42.805,6.029,13.3002,4.59992,2470.04,2020-5-13T06:26:20Z
2020-05-13T04:28:42Z,42.805,6.029,13.3001,4.59987,2470.1,2020-5-13T06:29:24Z
2020-05-13T04:31:45Z,42.805,6.029,13.2996,4.60006,2470.063,2020-5-13T06:32:27Z
2020-05-13T04:34:48Z,42.805,6.029,13.2998,4.60006,2470.077,2020-5-13T06:35:30Z
2020-05-13T04:37:52Z,42.805,6.029,13.2996,4.59992,2470.063,2020-5-13T06:38:33Z
2020-05-13T04:40:55Z,42.805,6.029,13.3004,4.59988,2470.04,2020-5-13T06:41:36Z
2020-05-13T04:43:58Z,42.805,6.029,13.3001,4.59995,2470.1,2020-5-13T06:44:40Z
2020-05-13T04:47:01Z,42.805,6.029,13.2996,4.60014,2470.077,2020-5-13T06:47:43Z
2020-05-13T04:50:04Z,42.805,6.029,13.3004,4.59998,2470.077,2020-5-13T06:50:46Z
2020-05-13T04:53:08Z,42.805,6.029,13.2997,4.60001,2470.017,2020-5-13T06:53:49Z
2020-05-13T04:56:11Z,42.805,6.029,13.3014,4.60003,2470.077,2020-5-13T06:56:53Z
2020-05-13T04:59:14Z,42.805,6.029,13.3001,4.60004,2470.077,2020-5-13T06:59:56Z
2020-05-13T05:02:17Z,42.805,6.029,13.3010,4.59996,2470.077,2020-5-13T07:02:59Z
2020-05-13T05:05:21Z,42.805,6.029,13.3000,4.60001,2470.11,2020-5-13T07:06:02Z
2020-05-13T05:08:24Z,42.805,6.029,13.3009,4.59998,2470.04,2020-5-13T07:09:06Z
2020-05-13T05:11:27Z,42.805,6.029,13.3003,4.60000,2470.087,2020-5-13T07:12:09Z
2020-05-13T05:14:30Z,42.805,6.029,13.3000,4.59992,2470.077,2020-5-13T07:15:12Z
2020-05-13T05:17:34Z,42.805,6.029,13.3004,4.59991,2470.1,2020-5-13T07:18:15Z
2020-05-13T05:20:37Z,42.805,6.029,13.2990,4.59994,2470.077,2020-5-13T07:21:19Z
2020-05-13T05:23:40Z,42.805,6.029,13.2993,4.59996,2470.04,2020-5-13T07:24:22Z
2020-05-13T05:26:43Z,42.805,6.029,13.3001,4.59991,2470.053,2020-5-13T07:27:25Z
2020-05-13T05:29:47Z,42.805,6.029,13.2999,4.60006,2470.017,2020-5-13T07:30:28Z
2020-05-13T05:32:50Z,42.805,6.029,13.2996,4.59999,2470.04,2020-5-13T07:33:32Z
2020-05-13T05:35:53Z,42.805,6.029,13.2996,4.59990,2470.063,2020-5-13T07:36:35Z
2020-05-13T05:38:56Z,42.805,6.029,13.2996,4.59998,2470.053,2020-5-13T07:39:38Z
2020-05-13T05:42:00Z,42.805,6.029,13.3021,4.60007,2470.077,2020-5-13T07:42:41Z
2020-05-13T05:45:03Z,42.805,6.029,13.2998,4.59993,2470.077,2020-5-13T07:45:45Z
2020-05-13T05:48:06Z,42.805,6.029,13.3014,4.60003,2470.04,2020-5-13T07:48:48Z
2020-05-13T05:51:09Z,42.805,6.029,13.3015,4.59993,2470.04,2020-5-13T07:51:51Z
2020-05-13T05:54:13Z,42.805,6.029,13.3004,4.60000,2470.03,2020-5-13T07:54:54Z
2020-05-13T05:57:16Z,42.805,6.029,13.3004,4.60011,2470.04,2020-5-13T07:57:57Z
2020-05-13T06:00:19Z,42.805,6.029,13.3020,4.59996,2470.04,2020-5-13T08:01:01Z
2020-05-13T06:03:22Z,42.805,6.029,13.3002,4.60002,2470.017,2020-5-13T08:04:04Z
2020-05-13T06:06:26Z,42.805,6.029,13.2994,4.60001,2470.03,2020-5-13T08:07:07Z
2020-05-13T06:09:29Z,42.805,6.029,13.2998,4.59997,2470.04,2020-5-13T08:10:11Z
2020-05-13T06:12:32Z,42.805,6.029,13.2998,4.59999,2470.017,2020-5-13T08:13:14Z
2020-05-13T06:15:35Z,42.805,6.029,13.3006,4.59999,2470.053,2020-5-13T08:16:17Z
2020-05-13T06:18:39Z,42.805,6.029,13.2992,4.59995,2470.053,2020-5-13T08:19:20Z
2020-05-13T06:21:42Z,42.805,6.029,13.2994,4.59997,2470.053,2020-5-13T08:22:24Z
2020-05-13T06:24:45Z,42.805,6.029,13.3001,4.59989,2470.063,2020-5-13T08:25:27Z
2020-05-13T06:27:48Z,42.805,6.029,13.2991,4.59999,2470.053,2020-5-13T08:28:30Z
2020-05-13T06:30:52Z,42.805,6.029,13.3022,4.59991,2470.053,2020-5-13T08:31:34Z
2020-05-13T06:33:55Z,42.805,6.029,13.2992,4.59987,2470.053,2020-5-13T08:34:37Z
2020-05-13T06:36:58Z,42.805,6.029,13.2996,4.59994,2470.053,2020-5-13T08:37:40Z
2020-05-13T06:40:02Z,42.805,6.029,13.2999,4.59997,2470.03,2020-5-13T08:40:43Z
2020-05-13T06:43:05Z,42.805,6.029,13.2997,4.59997,2470.04,2020-5-13T08:43:46Z
2020-05-13T06:46:08Z,42.805,6.029,13.2991,4.60001,2470.017,2020-5-13T08:46:50Z
2020-05-13T06:49:11Z,42.805,6.029,13.2999,4.59994,2470.03,2020-5-13T08:49:53Z
2020-05-13T06:52:15Z,42.805,6.029,13.2997,4.60002,2470.017,2020-5-13T08:52:56Z
2020-05-13T06:55:18Z,42.805,6.029,13.2993,4.60007,2470.04,2020-5-13T08:56:00Z
2020-05-13T06:58:21Z,42.805,6.029,13.2997,4.59992,2470.053,2020-5-13T08:59:03Z
2020-05-13T07:01:24Z,42.805,6.029,13.2991,4.59998,2470.077,2020-5-13T09:02:06Z
2020-05-13T07:04:27Z,42.805,6.029,13.2992,4.59989,2470.04,2020-5-13T09:05:09Z
2020-05-13T07:07:31Z,42.805,6.029,13.3003,4.59991,2470.04,2020-5-13T09:08:13Z
2020-05-13T07:10:34Z,42.805,6.029,13.2999,4.59996,2470.03,2020-5-13T09:11:16Z
2020-05-13T07:13:38Z,42.805,6.029,13.2995,4.59994,2470.04,2020-5-13T09:14:19Z
2020-05-13T07:16:41Z,42.805,6.029,13.3005,4.60000,2470.017,2020-5-13T09:17:23Z
2020-05-13T07:19:44Z,42.805,6.029,13.2999,4.59999,2470.017,2020-5-13T09:20:26Z
2020-05-13T07:22:47Z,42.805,6.029,13.3000,4.59996,2470.04,2020-5-13T09:23:29Z
2020-05-13T07:25:51Z,42.805,6.029,13.2995,4.60006,2470.04,2020-5-13T09:26:32Z
2020-05-13T07:28:54Z,42.805,6.029,13.2998,4.60002,2470.067,2020-5-13T09:29:36Z
2020-05-13T07:31:57Z,42.805,6.029,13.3030,4.60003,2470.04,2020-5-13T09:32:39Z
2020-05-13T07:35:00Z,42.805,6.029,13.2995,4.59994,2470.017,2020-5-13T09:35:42Z
2020-05-13T07:38:04Z,42.805,6.029,13.3001,4.59997,2470.063,2020-5-13T09:38:45Z
2020-05-13T07:41:07Z,42.805,6.029,13.3002,4.59993,2470.053,2020-5-13T09:41:49Z
2020-05-13T07:44:10Z,42.805,6.029,13.2999,4.59993,2470.063,2020-5-13T09:44:52Z
2020-05-13T07:47:13Z,42.805,6.029,13.2994,4.60003,2470.077,2020-5-13T09:47:55Z
2020-05-13T07:50:17Z,42.805,6.029,13.3000,4.60003,2470.03,2020-5-13T09:50:58Z
2020-05-13T07:53:20Z,42.805,6.029,13.3023,4.59994,2470.063,2020-5-13T09:54:02Z
2020-05-13T07:56:23Z,42.805,6.029,13.3005,4.59998,2470.053,2020-5-13T09:57:05Z
2020-05-13T07:59:26Z,42.805,6.029,13.3003,4.59999,2470.053,2020-5-13T10:00:08Z
2020-05-13T08:02:30Z,42.805,6.029,13.3009,4.59994,2470.04,2020-5-13T10:03:11Z
2020-05-13T08:05:33Z,42.805,6.029,13.2998,4.60008,2470.053,2020-5-13T10:06:15Z
2020-05-13T08:08:36Z,42.805,6.029,13.3006,4.60001,2470.053,2020-5-13T10:09:18Z
2020-05-13T08:11:39Z,42.805,6.029,13.3006,4.59996,2470.017,2020-5-13T10:12:21Z
2020-05-13T08:14:43Z,42.805,6.029,13.3004,4.59996,2470.053,2020-5-13T10:15:24Z
2020-05-13T08:17:46Z,42.805,6.029,13.3002,4.60001,2470.087,2020-5-13T10:18:28Z
2020-05-13T08:20:49Z,42.805,6.029,13.3006,4.59997,2470.04,2020-5-13T10:21:31Z
2020-05-13T08:23:52Z,42.805,6.029,13.2998,4.59999,2470.063,2020-5-13T10:24:34Z
2020-05-13T08:26:56Z,42.805,6.029,13.2997,4.59995,2470.04,2020-5-13T10:27:37Z
2020-05-13T08:29:59Z,42.805,6.029,13.3006,4.59993,2470.063,2020-5-13T10:30:41Z
2020-05-13T08:33:02Z,42.805,6.029,13.3001,4.60002,2470.063,2020-5-13T10:33:44Z
2020-05-13T08:36:05Z,42.805,6.029,13.3000,4.60000,2470.053,2020-5-13T10:36:47Z
2020-05-13T08:39:08Z,42.805,6.029,13.2999,4.59999,2470.017,2020-5-13T10:39:50Z
2020-05-13T08:42:12Z,42.805,6.029,13.3008,4.60001,2470.053,2020-5-13T10:42:54Z
2020-05-13T08:45:15Z,42.805,6.029,13.2994,4.59996,2470.077,2020-5-13T10:45:57Z
2020-05-13T08:48:18Z,42.805,6.029,13.3005,4.59999,2470.063,2020-5-13T10:49:00Z
2020-05-13T08:51:22Z,42.805,6.029,13.3001,4.60006,2470.04,2020-5-13T10:52:04Z
2020-05-13T08:54:25Z,42.805,6.029,13.2998,4.59999,2470.063,2020-5-13T10:55:07Z
2020-05-13T08:57:28Z,42.805,6.029,13.3006,4.60001,2470.077,2020-5-13T10:58:10Z
2020-05-13T09:00:32Z,42.805,6.029,13.2998,4.59996,2470.087,2020-5-13T11:01:13Z
2020-05-13T09:03:35Z,42.805,6.029,13.2999,4.59995,2470.063,2020-5-13T11:04:17Z
2020-05-13T09:06:38Z,42.805,6.029,13.3005,4.59996,2470.077,2020-5-13T11:07:20Z
2020-05-13T09:09:41Z,42.805,6.029,13.2999,4.59999,2470.077,2020-5-13T11:10:23Z
2020-05-13T09:12:45Z,42.805,6.029,13.3000,4.59995,2470.1,2020-5-13T11:13:27Z
2020-05-13T09:15:48Z,42.805,6.029,13.2992,4.60007,2470.1,2020-5-13T11:16:30Z
2020-05-13T09:18:51Z,42.805,6.029,13.3010,4.60001,2470.077,2020-5-13T11:19:33Z
2020-05-13T09:21:55Z,42.805,6.029,13.2996,4.59994,2470.063,2020-5-13T11:22:36Z
2020-05-13T09:24:58Z,42.805,6.029,13.2996,4.60000,2470.077,2020-5-13T11:25:40Z
2020-05-13T09:28:01Z,42.805,6.029,13.2997,4.59992,2470.1,2020-5-13T11:28:43Z
2020-05-13T09:31:04Z,42.805,6.029,13.3000,4.59996,2470.11,2020-5-13T11:31:46Z
2020-05-13T09:34:07Z,42.805,6.029,13.2997,4.60003,2470.077,2020-5-13T11:34:49Z
2020-05-13T09:37:11Z,42.805,6.029,13.3021,4.60003,2470.063,2020-5-13T11:37:52Z
2020-05-13T09:40:14Z,42.805,6.029,13.3000,4.59997,2470.063,2020-5-13T11:40:56Z
2020-05-13T09:43:17Z,42.805,6.029,13.2993,4.60005,2470.11,2020-5-13T11:43:59Z
2020-05-13T09:46:20Z,42.805,6.029,13.2996,4.60017,2470.124,2020-5-13T11:47:02Z
2020-05-13T09:49:24Z,42.805,6.029,13.2996,4.59995,2470.1,2020-5-13T11:50:06Z
2020-05-13T09:52:27Z,42.805,6.029,13.3001,4.59993,2470.1,2020-5-13T11:53:09Z
2020-05-13T09:55:30Z,42.805,6.029,13.3011,4.60001,2470.087,2020-5-13T11:56:12Z
2020-05-13T09:58:34Z,42.805,6.029,13.2999,4.60009,2470.063,2020-5-13T11:59:15Z
2020-05-13T10:01:37Z,42.805,6.029,13.3011,4.60031,2470.124,2020-5-13T12:02:19Z
2020-05-13T10:04:40Z,42.805,6.029,13.3000,4.60002,2470.1,2020-5-13T12:05:22Z
2020-05-13T10:07:43Z,42.805,6.029,13.2996,4.59999,2470.04,2020-5-13T12:08:25Z
2020-05-13T10:10:47Z,42.805,6.029,13.2996,4.59998,2470.087,2020-5-13T12:11:28Z
2020-05-13T10:13:50Z,42.805,6.029,13.2996,4.60000,2470.063,2020-5-13T12:14:32Z
2020-05-13T10:16:53Z,42.805,6.029,13.2998,4.60010,2470.063,2020-5-13T12:17:35Z
2020-05-13T10:19:56Z,42.805,6.029,13.2997,4.59991,2470.087,2020-5-13T12:20:38Z
2020-05-13T10:22:59Z,42.805,6.029,13.3005,4.60026,2470.077,2020-5-13T12:23:41Z
2020-05-13T10:26:03Z,42.805,6.029,13.2998,4.59993,2470.049,2020-5-13T12:26:45Z
2020-05-13T10:29:06Z,42.805,6.029,13.2999,4.59996,2470.077,2020-5-13T12:29:48Z
2020-05-13T10:32:09Z,42.805,6.029,13.3011,4.59989,2470.087,2020-5-13T12:32:51Z
2020-05-13T10:35:13Z,42.805,6.029,13.3005,4.60003,2470.124,2020-5-13T12:35:54Z
2020-05-13T10:38:16Z,42.805,6.029,13.2998,4.59997,2470.1,2020-5-13T12:38:58Z
2020-05-13T10:41:19Z,42.805,6.029,13.3000,4.60000,2470.077,2020-5-13T12:42:01Z
2020-05-13T10:44:23Z,42.805,6.029,13.3004,4.59997,2470.077,2020-5-13T12:45:04Z
2020-05-13T10:47:26Z,42.805,6.029,13.2995,4.59996,2470.11,2020-5-13T12:48:08Z
2020-05-13T10:50:29Z,42.805,6.029,13.3000,4.60002,2470.063,2020-5-13T12:51:11Z
2020-05-13T10:53:32Z,42.805,6.029,13.3028,4.60008,2470.087,2020-5-13T12:54:14Z
2020-05-13T10:56:36Z,42.805,6.029,13.3016,4.60005,2470.087,2020-5-13T12:57:17Z
2020-05-13T10:59:39Z,42.805,6.029,13.3014,4.60008,2470.077,2020-5-13T13:00:21Z
2020-05-13T11:02:42Z,42.805,6.029,13.3007,4.60007,2470.087,2020-5-13T13:03:24Z
2020-05-13T11:05:45Z,42.805,6.029,13.3005,4.60003,2470.077,2020-5-13T13:06:27Z
2020-05-13T11:08:49Z,42.805,6.029,13.3006,4.59994,2470.077,2020-5-13T13:09:30Z
2020-05-13T11:11:52Z,42.805,6.029,13.2998,4.60014,2470.063,2020-5-13T13:12:34Z
2020-05-13T11:14:55Z,42.805,6.029,13.3020,4.60015,2470.077,2020-5-13T13:15:37Z
2020-05-13T11:17:58Z,42.805,6.029,13.3009,4.60000,2470.077,2020-5-13T13:18:40Z
2020-05-13T11:21:02Z,42.805,6.029,13.2993,4.60001,2470.04,2020-5-13T13:21:44Z
2020-05-13T11:24:05Z,42.805,6.029,13.2990,4.60026,2470.124,2020-5-13T13:24:47Z
2020-05-13T11:27:08Z,42.805,6.029,13.3008,4.60005,2470.077,2020-5-13T13:27:50Z
2020-05-13T11:30:12Z,42.805,6.029,13.3015,4.60014,2470.077,2020-5-13T13:30:53Z
2020-05-13T11:33:15Z,42.805,6.029,13.3004,4.60009,2470.04,2020-5-13T13:33:57Z
2020-05-13T11:36:18Z,42.805,6.029,13.3044,4.60017,2470.04,2020-5-13T13:37:00Z
2020-05-13T11:39:21Z,42.805,6.029,13.3006,4.60003,2470.077,2020-5-13T13:40:03Z
2020-05-13T11:42:25Z,42.805,6.029,13.2998,4.60003,2470.077,2020-5-13T13:43:06Z
2020-05-13T11:45:28Z,42.805,6.029,13.2994,4.60006,2470.087,2020-5-13T13:46:10Z
2020-05-13T12:06:57Z,42.805,6.029,13.2979,4.59994,2470.087,2020-5-13T14:05:46Z
2020-05-13T12:58:08Z,42.805,6.029,13.2969,4.59978,2470.04,2020-5-13T14:58:50Z
2020-05-13T13:01:11Z,42.805,6.029,13.2971,4.59983,2470.063,2020-5-13T15:01:53Z
2020-05-13T13:04:14Z,42.805,6.029,13.2972,4.59982,2470.063,2020-5-13T15:04:56Z
2020-05-13T13:07:18Z,42.805,6.029,13.2973,4.59987,2470.04,2020-5-13T15:08:00Z
2020-05-13T13:10:21Z,42.805,6.029,13.2973,4.59981,2470.063,2020-5-13T15:11:03Z
2020-05-13T13:13:24Z,42.805,6.029,13.2967,4.59979,2470.04,2020-5-13T15:14:06Z
2020-05-13T13:16:28Z,42.805,6.029,13.2964,4.59976,2470.04,2020-5-13T15:17:09Z
2020-05-13T13:19:31Z,42.805,6.029,13.2971,4.59983,2470.077,2020-5-13T15:20:13Z
2020-05-13T13:22:34Z,42.805,6.029,13.2971,4.59981,2470.04,2020-5-13T15:23:16Z
2020-05-13T13:25:37Z,42.805,6.029,13.2973,4.59992,2470.077,2020-5-13T15:26:19Z
2020-05-13T13:28:41Z,42.805,6.029,13.2976,4.59999,2470.053,2020-5-13T15:29:22Z
2020-05-13T13:31:44Z,42.805,6.029,13.2969,4.59986,2470.077,2020-5-13T15:32:26Z
2020-05-13T13:34:47Z,42.805,6.029,13.2973,4.59991,2470.04,2020-5-13T15:35:29Z
2020-05-13T13:37:50Z,42.805,6.029,13.2984,4.59990,2470.017,2020-5-13T15:38:32Z
2020-05-13T13:40:54Z,42.805,6.029,13.2987,4.59991,2470.063,2020-5-13T15:41:35Z
2020-05-13T13:43:57Z,42.805,6.029,13.2982,4.60004,2470.053,2020-5-13T15:44:39Z
2020-05-13T13:47:00Z,42.805,6.029,13.3024,4.60000,2470.063,2020-5-13T15:47:42Z
2020-05-13T13:50:03Z,42.805,6.029,13.2968,4.59992,2470.063,2020-5-13T15:50:45Z
2020-05-13T13:53:06Z,42.805,6.029,13.2993,4.59986,2470.04,2020-5-13T15:53:48Z
2020-05-13T13:56:10Z,42.805,6.029,13.2968,4.59997,2470.053,2020-5-13T15:56:51Z
2020-05-13T13:59:13Z,42.805,6.029,13.2974,4.60010,2470.063,2020-5-13T15:59:55Z
2020-05-13T14:02:16Z,42.805,6.029,13.2971,4.59983,2470.04,2020-5-13T16:02:58Z
2020-05-13T14:05:19Z,42.805,6.029,13.2999,4.60008,2470.053,2020-5-13T16:06:01Z
2020-05-13T14:08:22Z,42.805,6.029,13.2991,4.59986,2470.04,2020-5-13T16:09:04Z
2020-05-13T14:11:26Z,42.805,6.029,13.2969,4.59987,2470.077,2020-5-13T16:12:07Z
2020-05-13T14:14:29Z,42.805,6.029,13.2991,4.59991,2470.053,2020-5-13T16:15:11Z
2020-05-13T14:17:32Z,42.805,6.029,13.3004,4.60009,2470.053,2020-5-13T16:18:14Z
2020-05-13T14:20:35Z,42.805,6.029,13.2974,4.60003,2470.017,2020-5-13T16:21:17Z
2020-05-13T14:23:39Z,42.805,6.029,13.2990,4.60010,2470.017,2020-5-13T16:24:20Z
2020-05-13T14:26:42Z,42.805,6.029,13.2976,4.59999,2470.04,2020-5-13T16:27:24Z
2020-05-13T14:29:45Z,42.805,6.029,13.2982,4.60000,2470.04,2020-5-13T16:30:27Z
2020-05-13T14:32:48Z,42.805,6.029,13.3012,4.60009,2470.04,2020-5-13T16:33:30Z
2020-05-13T14:35:51Z,42.805,6.029,13.3015,4.60002,2470.007,2020-5-13T16:36:33Z
2020-05-13T14:38:55Z,42.805,6.029,13.2979,4.60005,2470.04,2020-5-13T16:39:36Z
2020-05-13T14:41:58Z,42.805,6.029,13.2971,4.59996,2470.063,2020-5-13T16:42:40Z
2020-05-13T14:45:01Z,42.805,6.029,13.2965,4.59999,2470.017,2020-5-13T16:45:43Z
2020-05-13T14:48:05Z,42.805,6.029,13.3016,4.59993,2470.04,2020-5-13T16:48:46Z
2020-05-13T14:51:08Z,42.805,6.029,13.3002,4.60009,2470.017,2020-5-13T16:51:50Z
2020-05-13T14:54:11Z,42.805,6.029,13.3006,4.60021,2470.04,2020-5-13T16:54:53Z
2020-05-13T14:57:14Z,42.805,6.029,13.2999,4.60028,2470.04,2020-5-13T16:57:56Z
2020-05-13T15:00:17Z,42.805,6.029,13.2971,4.59991,2470.017,2020-5-13T17:00:59Z
2020-05-13T15:03:21Z,42.805,6.029,13.3006,4.60019,2470.017,2020-5-13T17:04:02Z
2020-05-13T15:06:24Z,42.805,6.029,13.3009,4.60018,2470.053,2020-5-13T17:07:06Z
2020-05-13T15:09:27Z,42.805,6.029,13.3006,4.60011,2470.007,2020-5-13T17:10:09Z
2020-05-13T15:12:30Z,42.805,6.029,13.2981,4.60015,2469.993,2020-5-13T17:13:12Z
2020-05-13T15:15:34Z,42.805,6.029,13.2983,4.60011,2470.017,2020-5-13T17:16:15Z
2020-05-13T15:18:37Z,42.805,6.029,13.3033,4.60028,2469.993,2020-5-13T17:19:19Z
2020-05-13T15:21:40Z,42.805,6.029,13.3017,4.60009,2470.017,2020-5-13T17:22:22Z
2020-05-13T15:24:43Z,42.805,6.029,13.3005,4.60018,2470.03,2020-5-13T17:25:25Z
2020-05-13T15:27:46Z,42.805,6.029,13.3008,4.60011,2470.04,2020-5-13T17:28:28Z
2020-05-13T15:30:50Z,42.805,6.029,13.3037,4.60014,2470.007,2020-5-13T17:31:32Z
2020-05-13T15:33:53Z,42.805,6.029,13.2998,4.60007,2470.003,2020-5-13T17:34:35Z
2020-05-13T15:36:56Z,42.805,6.029,13.3007,4.60008,2470.007,2020-5-13T17:37:38Z
2020-05-13T15:39:59Z,42.805,6.029,13.3003,4.60001,2469.993,2020-5-13T17:40:41Z
2020-05-13T15:43:03Z,42.805,6.029,13.3009,4.59999,2470.03,2020-5-13T17:43:44Z
2020-05-13T15:46:06Z,42.805,6.029,13.3012,4.59996,2470.017,2020-5-13T17:46:48Z
2020-05-13T15:49:09Z,42.805,6.029,13.3006,4.60003,2469.993,2020-5-13T17:49:51Z
2020-05-13T15:52:12Z,42.805,6.029,13.3005,4.60013,2470.007,2020-5-13T17:52:54Z
2020-05-13T15:55:15Z,42.805,6.029,13.3012,4.60021,2470.03,2020-5-13T17:55:57Z
2020-05-13T15:58:19Z,42.805,6.029,13.3021,4.60009,2470.03,2020-5-13T17:59:00Z
2020-05-13T16:01:22Z,42.805,6.029,13.3035,4.60011,2470.017,2020-5-13T18:02:04Z
2020-05-13T16:04:25Z,42.805,6.029,13.3002,4.60008,2470.017,2020-5-13T18:05:07Z
2020-05-13T16:07:28Z,42.805,6.029,13.3012,4.60026,2470.017,2020-5-13T18:08:10Z
2020-05-13T16:10:31Z,42.805,6.029,13.3019,4.60021,2470.017,2020-5-13T18:11:13Z
2020-05-13T16:13:35Z,42.805,6.029,13.2979,4.60006,2469.97,2020-5-13T18:14:16Z
2020-05-13T16:16:38Z,42.805,6.029,13.3060,4.60018,2469.993,2020-5-13T18:17:20Z
2020-05-13T16:19:41Z,42.805,6.029,13.3026,4.60028,2470.03,2020-5-13T18:20:23Z
2020-05-13T16:22:44Z,42.805,6.029,13.3015,4.60017,2470.007,2020-5-13T18:23:26Z